sat.trackr.live / text

‹ back to catalog

STARLINK-35023

NORAD 65279 · 2025-184G

PAYLOAD ACTIVE UNKNOWN

§ Identity

Operator
Country
US
Launch date
2025-08-22
Launch site
AFWTR
Launch vehicle
Mass (kg)
RCS (m²)

Purposes: comms

External: N2YO · Heavens-Above · Gunter

§ Orbital elements

Epoch: 2026-09-20T13:47:55.090752Z

Period
93.91 min
Inclination
97.2864°
Eccentricity
0.0001410
Mean motion
15.33464399 rev/d
Perigee alt
464.5 km
Apogee alt
466.5 km
Semi-major
6,843.6 km
B*
4.1712e-4
RAAN
311.5087°
Arg perigee
74.0547°
Mean anomaly
286.0851°
Rev number
6,073

§ Raw data

STARLINK-350231 65279U 25184G   26263.57494318  .00013423  00000+0  41712-3 0  99992 65279  97.2864 311.5087 0001410  74.0547 286.0851 15.33464399 60738

JSON: /api/v1/satellites/65279 · /tle

For live sub-satellite position, see the globe view (requires WebGL).

§ Visibility from observer

Set your observer location to see the next 7 days of passes ≥ 10°. The values pass through the URL so the page stays shareable.

No JS? Fill the form by hand. The geolocation button needs JavaScript.